Location: Unspecified
(44.0704°N, 88.6889°W)
Time: 14:57:56
(UTC+02:00)

Transit 2A - Pass Details

Date: 18 June 2019
Orbit: 594 x 965 km, 66.7° (Epoch: 17 July)

Event Time Altitude Azimuth Distance (km) Brightness Sun altitude
Rises 18:25:49 0° 324° (NW) 3,445 9.1 62.3°
Reaches altitude 10° 18:28:29 10° 319° (NW) 2,447 8.5 62.7°
Maximum altitude 18:33:50 47° 247° (WSW) 1,011 7.2 63.4°
Drops below altitude 10° 18:38:38 10° 174° (S) 2,191 8.8 64.0°
Sets 18:40:54 0° 168° (SSE) 3,051 9.4 64.2°
